Year,Month,Day,Hour,Minute,Value (Times are PST for temperature in C)
2019,10,29,03,55,8.10
2019,10,29,03,56,8.10
2019,10,29,03,57,8.10
2019,10,29,03,58,8.10
2019,10,29,03,59,8.10
2019,10,29,04,00,8.10
2019,10,29,04,01,8.10
2019,10,29,04,02,8.10
2019,10,29,04,03,8.10
2019,10,29,04,04,8.10
2019,10,29,04,05,8.10
2019,10,29,04,06,8.10
2019,10,29,04,07,8.10
2019,10,29,04,08,8.10
2019,10,29,08,22,6.60
2019,10,29,08,23,6.60
2019,10,29,08,24,6.60
2019,10,29,08,25,6.60
2019,10,29,08,26,6.60
2019,10,29,08,27,6.60
2019,10,29,08,28,6.60
2019,10,29,08,29,6.60
2019,10,29,08,30,6.60
2019,10,29,08,31,6.60
2019,10,29,08,32,6.60
2019,10,29,08,33,6.60
2019,10,29,08,34,6.60
2019,10,29,08,35,6.60
2019,10,29,08,36,6.60
2019,10,29,08,37,6.60
2019,10,29,08,38,6.60
2019,10,29,08,39,6.60
2019,10,29,08,40,6.60
2019,10,29,08,41,6.60
2019,10,29,08,42,6.60
2019,10,29,08,43,6.60
2019,10,29,08,44,6.60
2019,10,29,08,45,6.60
2019,10,29,08,46,6.60
2019,10,29,08,47,6.60
2019,10,29,08,48,6.60
2019,10,29,08,49,6.60
2019,10,29,08,50,6.60
2019,10,29,08,51,6.60
2019,10,29,08,52,6.70
2019,10,29,08,53,6.70
2019,10,29,08,54,6.70
2019,10,29,08,55,6.70
2019,10,29,08,56,6.80
2019,10,29,08,57,6.80
2019,10,29,08,58,6.80
2019,10,29,08,59,6.80
2019,10,29,09,00,6.90
2019,10,29,09,01,6.90
2019,10,29,09,02,6.90
2019,10,29,09,03,6.90
2019,10,29,09,04,6.90
2019,10,29,09,05,7.00
2019,10,29,09,06,7.00
2019,10,29,09,07,7.00
2019,10,29,09,08,7.10
2019,10,29,09,09,7.10
2019,10,29,09,10,7.10
2019,10,29,09,11,7.10
2019,10,29,09,12,7.10
2019,10,29,09,13,7.10
2019,10,29,09,14,7.10
2019,10,29,09,15,7.10
2019,10,29,09,16,7.20
2019,10,29,09,17,7.20
2019,10,29,09,18,7.20
2019,10,29,09,19,7.20
2019,10,29,09,20,7.20
2019,10,29,09,21,7.20
2019,10,29,09,22,7.20
2019,10,29,09,23,7.20
2019,10,29,09,24,7.20
2019,10,29,09,25,7.20
2019,10,29,09,26,7.20
2019,10,29,09,27,7.20
2019,10,29,09,28,7.20
2019,10,29,09,29,7.20
2019,10,29,09,30,7.20
2019,10,29,09,31,7.20
2019,10,29,09,32,7.20
2019,10,29,09,33,7.20
2019,10,29,09,34,7.30
2019,10,29,09,35,7.30
2019,10,29,09,36,7.30
2019,10,29,09,37,7.20
2019,10,29,09,38,7.20
2019,10,29,09,39,7.20
2019,10,29,09,40,7.20
2019,10,29,09,41,7.20
2019,10,29,09,42,7.20
2019,10,29,09,43,7.20
2019,10,29,09,44,7.20
2019,10,29,09,45,7.20
2019,10,29,09,46,7.20
2019,10,29,09,47,7.30
2019,10,29,09,48,7.30
2019,10,29,09,49,7.30
2019,10,29,09,50,7.30
2019,10,29,09,51,7.30
2019,10,29,09,52,7.30
2019,10,29,09,53,7.30
2019,10,29,09,54,7.30
2019,10,29,09,55,7.30
2019,10,29,09,56,7.30
2019,10,29,09,57,7.30
2019,10,29,09,58,7.30
2019,10,29,09,59,7.30
2019,10,29,10,00,7.30
2019,10,29,10,01,7.30
2019,10,29,10,02,7.30
2019,10,29,10,03,7.30
2019,10,29,10,04,7.30
2019,10,29,10,05,7.30
2019,10,29,10,06,7.30
2019,10,29,10,07,7.30
2019,10,29,10,08,7.30
2019,10,29,10,09,7.30
2019,10,29,10,10,7.30
2019,10,29,10,11,7.20
2019,10,29,10,12,7.20
2019,10,29,10,13,7.20
2019,10,29,10,14,7.20
2019,10,29,10,15,7.10
2019,10,29,10,16,7.10
2019,10,29,10,17,7.10
2019,10,29,10,18,7.20
2019,10,29,10,19,7.20
2019,10,29,10,20,7.20
2019,10,29,10,21,7.20
2019,10,29,10,22,7.20
2019,10,29,10,23,7.30
2019,10,29,10,24,7.30
2019,10,29,10,25,7.30
2019,10,29,10,26,7.30
2019,10,29,10,27,7.30
2019,10,29,10,28,7.30
2019,10,29,10,29,7.30
2019,10,29,10,30,7.30
2019,10,29,10,31,7.30
2019,10,29,10,32,7.30
2019,10,29,10,33,7.30
2019,10,29,10,34,7.30
2019,10,29,10,35,7.30
2019,10,29,10,36,7.30
2019,10,29,10,37,7.30
2019,10,29,10,38,7.30
2019,10,29,10,39,7.30
2019,10,29,10,40,7.30
2019,10,29,10,41,7.30
2019,10,29,10,42,7.30
2019,10,29,10,43,7.30
2019,10,29,10,44,7.30
2019,10,29,10,45,7.30
2019,10,29,10,46,7.30
2019,10,29,10,47,7.30
2019,10,29,10,48,7.30
2019,10,29,10,49,7.30
2019,10,29,10,50,7.30
2019,10,29,10,51,7.30
2019,10,29,10,52,7.30
2019,10,29,10,53,7.20
2019,10,29,10,54,7.20
2019,10,29,10,55,7.20
2019,10,29,10,56,7.20
2019,10,29,10,57,7.20
2019,10,29,10,58,7.20
2019,10,29,10,59,7.20
2019,10,29,11,00,7.20
2019,10,29,11,01,7.20
2019,10,29,11,02,7.20
2019,10,29,11,03,7.20
2019,10,29,11,04,7.20
2019,10,29,11,05,7.20
2019,10,29,11,06,7.30
2019,10,29,11,07,7.30
2019,10,29,11,08,7.30
2019,10,29,11,09,7.30
2019,10,29,11,10,7.30
2019,10,29,11,11,7.30
2019,10,29,11,12,7.30
2019,10,29,11,13,7.30
2019,10,29,11,14,7.30
2019,10,29,11,15,7.30
2019,10,29,11,16,7.30
2019,10,29,11,17,7.30
2019,10,29,11,18,7.30
2019,10,29,11,19,7.30
2019,10,29,11,20,7.30
2019,10,29,11,21,7.30
2019,10,29,11,22,7.30
2019,10,29,11,23,7.30
2019,10,29,11,24,7.30
2019,10,29,11,25,7.30
2019,10,29,11,26,7.30
2019,10,29,11,27,7.20
2019,10,29,11,28,7.20
2019,10,29,11,29,7.20
2019,10,29,11,30,7.20
2019,10,29,11,31,7.20
2019,10,29,11,32,7.20
2019,10,29,11,33,7.20
2019,10,29,11,34,7.20
2019,10,29,11,35,7.20
2019,10,29,11,36,7.20
2019,10,29,11,37,7.20
2019,10,29,11,38,7.20
2019,10,29,11,39,7.20
2019,10,29,11,40,7.20
2019,10,29,11,41,7.20
2019,10,29,11,42,7.20
2019,10,29,11,43,7.20
2019,10,29,11,44,7.20
2019,10,29,11,45,7.20
2019,10,29,11,46,7.20
2019,10,29,11,47,7.30
2019,10,29,11,48,7.30
2019,10,29,11,49,7.30
2019,10,29,11,50,7.20
2019,10,29,11,51,7.20
2019,10,29,11,52,7.20
2019,10,29,11,53,7.20
2019,10,29,11,54,7.20
2019,10,29,11,55,7.20
2019,10,29,11,56,7.20
2019,10,29,11,57,7.30
2019,10,29,11,58,7.30
2019,10,29,11,59,7.30
2019,10,29,12,00,7.40
2019,10,29,12,01,7.40
2019,10,29,12,02,7.40
2019,10,29,12,03,7.50
2019,10,29,12,04,7.50
2019,10,29,12,05,7.50
2019,10,29,12,06,7.50
2019,10,29,12,07,7.50
2019,10,29,12,08,7.50
2019,10,29,12,09,7.50
2019,10,29,12,10,7.50
2019,10,29,12,11,7.50
2019,10,29,12,12,7.50
2019,10,29,12,13,7.50
2019,10,29,12,14,7.60
2019,10,29,12,15,7.50
2019,10,29,12,16,7.60
2019,10,29,12,17,7.60
2019,10,29,12,18,7.60
2019,10,29,12,19,7.50
2019,10,29,12,20,7.50
2019,10,29,12,21,7.60
2019,10,29,12,22,7.60
2019,10,29,12,23,7.50
2019,10,29,12,24,7.50
2019,10,29,12,25,7.50
2019,10,29,12,26,7.50
2019,10,29,12,27,7.50
2019,10,29,12,28,7.50
2019,10,29,12,29,7.50
2019,10,29,12,30,7.50
2019,10,29,12,31,7.60
2019,10,29,12,32,7.60
2019,10,29,12,33,7.60
2019,10,29,12,34,7.60
2019,10,29,12,35,7.60
2019,10,29,12,36,7.60
2019,10,29,12,37,7.60
2019,10,29,12,38,7.60
2019,10,29,12,39,7.60
2019,10,29,12,40,7.60
2019,10,29,12,41,7.50
2019,10,29,12,42,7.50
2019,10,29,12,43,7.50
2019,10,29,12,44,7.40
2019,10,29,12,45,7.40
2019,10,29,12,46,7.50
2019,10,29,12,47,7.50
2019,10,29,12,48,7.60
2019,10,29,12,49,7.60
2019,10,29,12,50,7.60
2019,10,29,12,51,7.60
2019,10,29,12,52,7.60
2019,10,29,12,53,7.60
2019,10,29,12,54,7.60
2019,10,29,12,55,7.60
2019,10,29,12,56,7.60
2019,10,29,12,57,7.70
2019,10,29,12,58,7.70
2019,10,29,12,59,7.70
2019,10,29,13,00,7.70
2019,10,29,13,01,7.70
2019,10,29,13,02,7.70
2019,10,29,13,03,7.70
2019,10,29,13,04,7.70
2019,10,29,13,05,7.70
2019,10,29,13,06,7.70
2019,10,29,13,07,7.70
2019,10,29,13,08,7.60
2019,10,29,13,09,7.60
2019,10,29,13,10,7.60
2019,10,29,13,11,7.50
2019,10,29,13,12,7.50
2019,10,29,13,13,7.50
2019,10,29,13,14,7.50
2019,10,29,13,15,7.50
2019,10,29,13,16,7.50
2019,10,29,13,17,7.60
2019,10,29,13,18,7.60
2019,10,29,13,19,7.70
2019,10,29,13,20,7.70
2019,10,29,13,21,7.70
2019,10,29,13,22,7.70
2019,10,29,13,23,7.70
2019,10,29,13,24,7.70
2019,10,29,13,25,7.70
2019,10,29,13,26,7.70
2019,10,29,13,27,7.80
2019,10,29,13,28,7.80
2019,10,29,13,29,7.80
2019,10,29,13,30,7.80
2019,10,29,13,31,7.80
2019,10,29,13,32,7.80
2019,10,29,13,33,7.80
2019,10,29,13,34,7.80
2019,10,29,13,35,7.80
2019,10,29,13,36,7.90
2019,10,29,13,37,7.90
2019,10,29,13,38,7.90
2019,10,29,13,39,7.90
2019,10,29,13,40,7.90
2019,10,29,13,41,7.90
2019,10,29,13,42,7.90
2019,10,29,13,43,8.00
2019,10,29,13,44,8.00
2019,10,29,13,45,8.10
2019,10,29,13,46,8.10
2019,10,29,13,47,8.20
2019,10,29,13,48,8.20
2019,10,29,13,49,8.20
2019,10,29,13,50,8.20
2019,10,29,13,51,8.30
2019,10,29,13,52,8.30
2019,10,29,13,53,8.30
2019,10,29,13,54,8.30
2019,10,29,13,55,8.30
2019,10,29,13,56,8.30
2019,10,29,13,57,8.30
2019,10,29,13,58,8.30
2019,10,29,13,59,8.30
2019,10,29,14,00,8.30
2019,10,29,14,01,8.30
2019,10,29,14,02,8.30
2019,10,29,14,03,8.20
2019,10,29,14,04,8.20
2019,10,29,14,05,8.20
2019,10,29,14,06,8.10
2019,10,29,14,07,8.10
2019,10,29,14,08,8.10
2019,10,29,14,09,8.10
2019,10,29,14,10,8.10
2019,10,29,14,11,8.10
2019,10,29,14,12,8.10
2019,10,29,14,13,8.10
2019,10,29,14,14,8.10
2019,10,29,14,15,8.10
2019,10,29,14,16,8.10
2019,10,29,14,17,8.10
2019,10,29,14,18,8.10
2019,10,29,14,19,8.20
2019,10,29,14,20,8.20
2019,10,29,14,21,8.20
2019,10,29,14,22,8.20
2019,10,29,14,23,8.20
2019,10,29,14,24,8.20
2019,10,29,14,25,8.30
2019,10,29,14,26,8.30
2019,10,29,14,27,8.30
2019,10,29,14,28,8.30
2019,10,29,14,29,8.30
2019,10,29,14,30,8.40
2019,10,29,14,31,8.40
2019,10,29,14,32,8.40
2019,10,29,14,33,8.40
2019,10,29,14,34,8.40
2019,10,29,14,35,8.40
2019,10,29,14,36,8.40
2019,10,29,14,37,8.50
2019,10,29,14,38,8.50
2019,10,29,14,39,8.50
2019,10,29,14,40,8.60
2019,10,29,14,41,8.60
2019,10,29,14,42,8.60
2019,10,29,14,43,8.70
2019,10,29,14,44,8.70
2019,10,29,14,45,8.70
2019,10,29,14,46,8.70
2019,10,29,14,47,8.70
2019,10,29,14,48,8.70
2019,10,29,14,49,8.70
2019,10,29,14,50,8.70
2019,10,29,14,51,8.70
2019,10,29,14,52,8.70
2019,10,29,14,53,8.60
2019,10,29,14,54,8.60
2019,10,29,14,55,8.70
2019,10,29,14,56,8.60
2019,10,29,14,57,8.60
2019,10,29,14,58,8.60
2019,10,29,14,59,8.60
2019,10,29,15,00,8.60
2019,10,29,15,01,8.60
2019,10,29,15,02,8.60
2019,10,29,15,03,8.60
2019,10,29,15,04,8.60
2019,10,29,15,05,8.60
2019,10,29,15,06,8.70
2019,10,29,15,07,8.70
2019,10,29,15,08,8.70
2019,10,29,15,09,8.80
2019,10,29,15,10,8.80
2019,10,29,15,11,8.90
2019,10,29,15,12,8.90
2019,10,29,15,13,9.00
2019,10,29,15,14,9.00
2019,10,29,15,15,9.10
2019,10,29,15,16,9.10
2019,10,29,15,17,9.00
2019,10,29,15,18,9.00
2019,10,29,15,19,9.00
2019,10,29,15,20,8.90
2019,10,29,15,21,8.90
2019,10,29,15,22,8.90
2019,10,29,15,23,8.90
2019,10,29,15,24,8.90
2019,10,29,15,25,8.90
2019,10,29,15,26,8.90
2019,10,29,15,27,8.90
2019,10,29,15,28,8.90
2019,10,29,15,29,8.90
2019,10,29,15,30,8.90
2019,10,29,15,31,8.90
2019,10,29,15,32,8.90
2019,10,29,15,33,8.90
2019,10,29,15,34,8.80
2019,10,29,15,35,8.80
2019,10,29,15,36,8.80
2019,10,29,15,37,8.80
2019,10,29,15,38,8.80
2019,10,29,15,39,8.90
2019,10,29,15,40,8.80
2019,10,29,15,41,8.80
2019,10,29,15,42,8.80
2019,10,29,15,43,8.80
2019,10,29,15,44,8.80
2019,10,29,15,45,8.80
2019,10,29,15,46,8.80
2019,10,29,15,47,8.80
2019,10,29,15,48,8.70
2019,10,29,15,49,8.70
2019,10,29,15,50,8.80
2019,10,29,15,51,8.80
2019,10,29,15,52,8.80
2019,10,29,15,53,8.80
2019,10,29,15,54,8.90
2019,10,29,15,55,8.90
2019,10,29,15,56,8.90
2019,10,29,15,57,8.90
2019,10,29,15,58,8.90
2019,10,29,15,59,8.90
2019,10,29,16,00,8.90
2019,10,29,16,01,9.00
2019,10,29,16,02,9.00
2019,10,29,16,03,9.00
2019,10,29,16,04,9.00
2019,10,29,16,05,9.00
2019,10,29,16,06,9.00
2019,10,29,16,07,9.00
2019,10,29,16,08,9.00
2019,10,29,16,09,9.00
2019,10,29,16,10,9.00
2019,10,29,16,11,9.00
2019,10,29,16,12,9.00
2019,10,29,16,13,9.00
2019,10,29,16,14,9.00
2019,10,29,16,15,9.00
2019,10,29,16,16,9.00
2019,10,29,16,17,9.00
2019,10,29,16,18,9.00
2019,10,29,16,19,9.00
2019,10,29,16,20,9.00
2019,10,29,16,21,9.00
2019,10,29,16,22,9.10
2019,10,29,16,23,9.10
2019,10,29,16,24,9.10
2019,10,29,16,25,9.10
2019,10,29,16,26,9.10
2019,10,29,16,27,9.10
2019,10,29,16,28,9.10
2019,10,29,16,29,9.10
2019,10,29,16,30,9.10
2019,10,29,16,31,9.10
2019,10,29,16,32,9.20
2019,10,29,16,33,9.20
2019,10,29,16,34,9.20
2019,10,29,16,35,9.20
2019,10,29,16,36,9.20
2019,10,29,16,37,9.20
2019,10,29,16,38,9.20
2019,10,29,16,39,9.30
2019,10,29,16,40,9.30
2019,10,29,16,41,9.30
2019,10,29,16,42,9.30
2019,10,29,16,43,9.30
2019,10,29,16,44,9.20
2019,10,29,16,45,9.20
2019,10,29,16,46,9.20
2019,10,29,16,47,9.20
2019,10,29,16,48,9.10
2019,10,29,16,49,9.10
2019,10,29,16,50,9.10
2019,10,29,16,51,9.10
2019,10,29,16,52,9.20
2019,10,29,16,53,9.20
2019,10,29,16,54,9.20
2019,10,29,16,55,9.30
2019,10,29,16,56,9.30
2019,10,29,16,57,9.30
2019,10,29,16,58,9.30
2019,10,29,16,59,9.20
2019,10,29,17,00,9.20
2019,10,29,17,01,9.20
2019,10,29,17,02,9.20
2019,10,29,17,03,9.20
2019,10,29,17,04,9.20
2019,10,29,17,05,9.20
2019,10,29,17,06,9.10
2019,10,29,17,07,9.10
2019,10,29,17,08,9.10
2019,10,29,17,09,9.10
2019,10,29,17,10,9.10
2019,10,29,17,11,9.00
2019,10,29,17,12,9.00
2019,10,29,17,13,8.90
2019,10,29,17,14,8.90
2019,10,29,17,15,8.80
2019,10,29,17,16,8.80
2019,10,29,17,17,8.80
2019,10,29,17,18,8.80
2019,10,29,17,19,8.80
2019,10,29,17,20,8.70
2019,10,29,17,21,8.70
2019,10,29,17,22,8.70
2019,10,29,17,23,8.70
2019,10,29,17,24,8.70
2019,10,29,17,25,8.60
2019,10,29,17,26,8.60
2019,10,29,17,27,8.60
2019,10,29,17,28,8.60
2019,10,29,17,29,8.50
2019,10,29,17,30,8.50
2019,10,29,17,31,8.50
2019,10,29,17,32,8.50
2019,10,29,17,33,8.40
2019,10,29,17,34,8.40
2019,10,29,17,35,8.40
2019,10,29,17,36,8.40
2019,10,29,17,37,8.40
2019,10,29,17,38,8.40
2019,10,29,17,39,8.40
2019,10,29,17,40,8.40
2019,10,29,17,41,8.40
2019,10,29,17,42,8.40
2019,10,29,17,43,8.40
2019,10,29,17,44,8.40
2019,10,29,17,45,8.40
2019,10,29,17,46,8.40
2019,10,29,17,47,8.40
2019,10,29,17,48,8.40
2019,10,29,17,49,8.40
2019,10,29,17,50,8.30
2019,10,29,17,51,8.30
2019,10,29,17,52,8.30
2019,10,29,17,53,8.30
2019,10,29,17,54,8.30
2019,10,29,17,55,8.30
2019,10,29,17,56,8.30
2019,10,29,17,57,8.20
2019,10,29,17,58,8.20
2019,10,29,17,59,8.20
2019,10,29,18,00,8.20
2019,10,29,18,01,8.20
2019,10,29,18,02,8.10
2019,10,29,18,03,8.10
2019,10,29,18,04,8.10
2019,10,29,18,05,8.10
2019,10,29,18,06,8.10
2019,10,29,18,07,8.00
2019,10,29,18,08,8.00
2019,10,29,18,09,8.00
2019,10,29,18,10,7.90
2019,10,29,18,11,7.90
2019,10,29,18,12,7.90
2019,10,29,18,13,7.90
2019,10,29,18,14,7.90
2019,10,29,18,15,7.80
2019,10,29,18,16,7.80
2019,10,29,18,17,7.80
2019,10,29,18,18,7.80
2019,10,29,18,19,7.80
2019,10,29,18,20,7.80
2019,10,29,18,21,7.70
2019,10,29,18,22,7.70
2019,10,29,18,23,7.70
2019,10,29,18,24,7.70
2019,10,29,18,25,7.60
2019,10,29,18,26,7.60
2019,10,29,18,27,7.60
2019,10,29,18,28,7.60
2019,10,29,18,29,7.50
2019,10,29,18,30,7.50
2019,10,29,18,31,7.50
2019,10,29,18,32,7.50
2019,10,29,18,33,7.40
2019,10,29,18,34,7.40
2019,10,29,18,35,7.40
2019,10,29,18,36,7.40
2019,10,29,18,37,7.40
2019,10,29,18,38,7.40
2019,10,29,18,39,7.30
2019,10,29,18,40,7.30
2019,10,29,18,41,7.30
2019,10,29,18,42,7.30
2019,10,29,18,43,7.30
2019,10,29,18,44,7.30
2019,10,29,18,45,7.30
2019,10,29,18,46,7.30
2019,10,29,18,47,7.30
2019,10,29,18,48,7.20
2019,10,29,18,49,7.20
2019,10,29,18,50,7.20
2019,10,29,18,51,7.20
2019,10,29,18,52,7.20
2019,10,29,18,53,7.20
2019,10,29,18,54,7.20
2019,10,29,18,55,7.20
2019,10,29,18,56,7.20
2019,10,29,18,57,7.20
2019,10,29,18,58,7.10
2019,10,29,18,59,7.10
2019,10,29,19,00,7.10
2019,10,29,19,01,7.10
2019,10,29,19,02,7.10
2019,10,29,19,03,7.10
2019,10,29,19,04,7.10
2019,10,29,19,05,7.00
2019,10,29,19,06,7.00
2019,10,29,19,07,7.00
2019,10,29,19,08,6.90
2019,10,29,19,09,6.90
2019,10,29,19,10,6.90
2019,10,29,19,11,6.90
2019,10,29,19,12,6.90
2019,10,29,19,13,6.80
2019,10,29,19,14,6.80
2019,10,29,19,15,6.80
2019,10,29,19,16,6.70
2019,10,29,19,17,6.70
2019,10,29,19,18,6.70
2019,10,29,19,19,6.60
2019,10,29,19,20,6.60
2019,10,29,19,21,6.50
2019,10,29,19,22,6.50
2019,10,29,19,23,6.50
2019,10,29,19,24,6.40
2019,10,29,19,25,6.40
2019,10,29,19,26,6.40
2019,10,29,19,27,6.30
2019,10,29,19,28,6.30
2019,10,29,19,29,6.30
2019,10,29,19,30,6.20
2019,10,29,19,31,6.20
2019,10,29,19,32,6.20
2019,10,29,19,33,6.10
2019,10,29,19,34,6.10
2019,10,29,19,35,6.10
2019,10,29,19,36,6.10
2019,10,29,19,37,6.10
2019,10,29,19,38,6.00
2019,10,29,19,39,5.90
2019,10,29,19,40,5.90
2019,10,29,19,41,5.90
2019,10,29,19,42,5.80
2019,10,29,19,43,5.80
2019,10,29,19,44,5.80
2019,10,29,19,45,5.80
2019,10,29,19,46,5.80
2019,10,29,19,47,5.70
2019,10,29,19,48,5.70
2019,10,29,19,49,5.70
2019,10,29,19,50,5.70
2019,10,29,19,51,5.70
2019,10,29,19,52,5.70
2019,10,29,19,53,5.70
2019,10,29,19,54,5.70
2019,10,29,19,55,5.70
2019,10,29,19,56,5.70
2019,10,29,19,57,5.70
2019,10,29,19,58,5.70
2019,10,29,19,59,5.60
2019,10,29,20,00,5.60
2019,10,29,20,01,5.60
2019,10,29,20,02,5.50
2019,10,29,20,03,5.50
2019,10,29,20,04,5.40
2019,10,29,20,05,5.40
2019,10,29,20,06,5.40
2019,10,29,20,07,5.40
2019,10,29,20,08,5.30
2019,10,29,20,09,5.30
2019,10,29,20,10,5.30
2019,10,29,20,11,5.30
2019,10,29,20,12,5.30
2019,10,29,20,13,5.30
2019,10,29,20,14,5.30
2019,10,29,20,15,5.20
2019,10,29,20,16,5.20
2019,10,29,20,17,5.20
2019,10,29,20,18,5.10
2019,10,29,20,19,5.10
2019,10,29,20,20,5.00
2019,10,29,20,21,5.00
2019,10,29,20,22,5.00
2019,10,29,20,23,5.00
2019,10,29,20,24,4.90
2019,10,29,20,25,4.90
2019,10,29,20,26,4.90
2019,10,29,20,27,4.80
2019,10,29,20,28,4.80
2019,10,29,20,29,4.70
2019,10,29,20,30,4.70
2019,10,29,20,31,4.70
2019,10,29,20,32,4.70
2019,10,29,20,33,4.60
2019,10,29,20,34,4.60
2019,10,29,20,35,4.60
2019,10,29,20,36,4.60
2019,10,29,20,37,4.60
2019,10,29,20,38,4.50
2019,10,29,20,39,4.50
2019,10,29,20,40,4.50
2019,10,29,20,41,4.50
2019,10,29,20,42,4.50
2019,10,29,20,43,4.50
2019,10,29,20,44,4.40
2019,10,29,20,45,4.40
2019,10,29,20,46,4.40
2019,10,29,20,47,4.40
2019,10,29,20,48,4.30
2019,10,29,20,49,4.30
2019,10,29,20,50,4.30
2019,10,29,20,51,4.30
2019,10,29,20,52,4.20
2019,10,29,20,53,4.20
2019,10,29,20,54,4.20
2019,10,29,20,55,4.20
2019,10,29,20,56,4.20
2019,10,29,20,57,4.10
2019,10,29,20,58,4.10
2019,10,29,20,59,4.10
2019,10,29,21,00,4.00
2019,10,29,21,01,4.00
2019,10,29,21,02,4.00
2019,10,29,21,03,3.90
2019,10,29,21,04,3.90
2019,10,29,21,05,3.90
2019,10,29,21,06,3.90
2019,10,29,21,07,3.90
2019,10,29,21,08,3.80
2019,10,29,21,09,3.80
2019,10,29,21,10,3.80
2019,10,29,21,11,3.80
2019,10,29,21,12,3.80
2019,10,29,21,13,3.80
2019,10,29,21,14,3.80
2019,10,29,21,15,3.80
2019,10,29,21,16,3.70
2019,10,29,21,17,3.70
2019,10,29,21,18,3.70
2019,10,29,21,19,3.70
2019,10,29,21,20,3.80
2019,10,29,21,21,3.80
2019,10,29,21,22,3.80
2019,10,29,21,23,3.80
2019,10,29,21,24,3.80
2019,10,29,21,25,3.80
2019,10,29,21,26,3.80
2019,10,29,21,27,3.80
2019,10,29,21,28,3.80
2019,10,29,21,29,3.80
2019,10,29,21,30,3.80
2019,10,29,21,31,3.80
2019,10,29,21,32,3.80
2019,10,29,21,33,3.80
2019,10,29,21,34,3.80
2019,10,29,21,35,3.80
2019,10,29,21,36,3.80
2019,10,29,21,37,3.80
2019,10,29,21,38,3.80
2019,10,29,21,39,3.80
2019,10,29,21,40,3.80
2019,10,29,21,41,3.80
2019,10,29,21,42,3.80
2019,10,29,21,43,3.80
2019,10,29,21,44,3.80
2019,10,29,21,45,3.70
2019,10,29,21,46,3.70
2019,10,29,21,47,3.70
2019,10,29,21,48,3.70
2019,10,29,21,49,3.70
2019,10,29,21,50,3.70
2019,10,29,21,51,3.70
2019,10,29,21,52,3.70
2019,10,29,21,53,3.70
2019,10,29,21,54,3.70
2019,10,29,21,55,3.60
2019,10,29,21,56,3.60
2019,10,29,21,57,3.60
2019,10,29,21,58,3.50
2019,10,29,21,59,3.50
2019,10,29,22,00,3.50
2019,10,29,22,01,3.50
2019,10,29,22,02,3.50
2019,10,29,22,03,3.50
2019,10,29,22,04,3.50
2019,10,29,22,05,3.40
2019,10,29,22,06,3.40
2019,10,29,22,07,3.40
2019,10,29,22,08,3.40
2019,10,29,22,09,3.40
2019,10,29,22,10,3.40
2019,10,29,22,11,3.40
2019,10,29,22,12,3.40
2019,10,29,22,13,3.40
2019,10,29,22,14,3.30
2019,10,29,22,15,3.30
2019,10,29,22,16,3.30
2019,10,29,22,17,3.30
2019,10,29,22,18,3.30
2019,10,29,22,19,3.30
2019,10,29,22,20,3.30
2019,10,29,22,21,3.30
2019,10,29,22,22,3.30
2019,10,29,22,23,3.20
2019,10,29,22,24,3.20
2019,10,29,22,25,3.20
2019,10,29,22,26,3.20
2019,10,29,22,27,3.20
2019,10,29,22,28,3.20
2019,10,29,22,29,3.20
2019,10,29,22,30,3.20
2019,10,29,22,31,3.20
2019,10,29,22,32,3.20
2019,10,29,22,33,3.20
2019,10,29,22,34,3.10
2019,10,29,22,35,3.10
2019,10,29,22,36,3.10
2019,10,29,22,37,3.10
2019,10,29,22,38,3.10
2019,10,29,22,39,3.10
2019,10,29,22,40,3.10
2019,10,29,22,41,3.10
2019,10,29,22,42,3.10
2019,10,29,22,43,3.10
2019,10,29,22,44,3.10
2019,10,29,22,45,3.10
2019,10,29,22,46,3.10
2019,10,29,22,47,3.00
2019,10,29,22,48,3.00
2019,10,29,22,49,3.00
2019,10,29,22,50,2.90
2019,10,29,22,51,2.90
2019,10,29,22,52,2.90
2019,10,29,22,53,2.80
2019,10,29,22,54,2.80
2019,10,29,22,55,2.80
2019,10,29,22,56,2.70
2019,10,29,22,57,2.70
2019,10,29,22,58,2.60
2019,10,29,22,59,2.60
2019,10,29,23,00,2.60
2019,10,29,23,01,2.50
2019,10,29,23,02,2.60
2019,10,29,23,03,2.60
2019,10,29,23,04,2.60
2019,10,29,23,05,2.60
2019,10,29,23,06,2.60
2019,10,29,23,07,2.60
2019,10,29,23,08,2.60
2019,10,29,23,09,2.60
2019,10,29,23,10,2.60
2019,10,29,23,11,2.70
2019,10,29,23,12,2.70
2019,10,29,23,13,2.60
2019,10,29,23,14,2.70
2019,10,29,23,15,2.70
2019,10,29,23,16,2.70
2019,10,29,23,17,2.70
2019,10,29,23,18,2.70
2019,10,29,23,19,2.70
2019,10,29,23,20,2.70
2019,10,29,23,21,2.70
2019,10,29,23,22,2.70
2019,10,29,23,23,2.70
2019,10,29,23,24,2.70
2019,10,29,23,25,2.70
2019,10,29,23,26,2.70
2019,10,29,23,27,2.60
2019,10,29,23,28,2.60
2019,10,29,23,29,2.60
2019,10,29,23,30,2.60
2019,10,29,23,31,2.60
2019,10,29,23,32,2.60
2019,10,29,23,33,2.60
2019,10,29,23,34,2.60
2019,10,29,23,35,2.60
2019,10,29,23,36,2.60
2019,10,29,23,37,2.60
2019,10,29,23,38,2.60
2019,10,29,23,39,2.50
2019,10,29,23,40,2.50
2019,10,29,23,41,2.50
2019,10,29,23,42,2.40
2019,10,29,23,43,2.40
2019,10,29,23,44,2.40
2019,10,29,23,45,2.30
2019,10,29,23,46,2.30
2019,10,29,23,47,2.30
2019,10,29,23,48,2.30
2019,10,29,23,49,2.30
2019,10,29,23,50,2.30
2019,10,29,23,51,2.30
2019,10,29,23,52,2.30
2019,10,29,23,53,2.30
2019,10,29,23,54,2.30
2019,10,29,23,55,2.30
2019,10,29,23,56,2.30
2019,10,29,23,57,2.30
2019,10,29,23,58,2.30
2019,10,29,23,59,2.30
